SLEIPNER A PLATF current weather conditions

sailwx.info

Wind from 220 at 30 knots

Air temperature 6.0° C
Visibility: greater than 5.4 NM
Dewpoint 2.0° C

Last reported at 2015-Feb-27 21:20 UTC.
Time now 2015-Feb-27 22:43 UTC

Location: N 58°22' E 001°54'.
View on Google Maps.

See reports from other nearby stations

  
Tides and Currents Weather Stations Pressure Air Temp Water Temp Dewpoint Dewpoint Depression Visibility Wind Speed Wind Dir Waves Ship Positions
date/time (UTC)wind fromknots sea level pressurealtimeterstation pressurevisibilityair tempwater tempwave heightnotes
2015-Feb-27 21:20 220 30 5.4 6.0
2015-Feb-27 20:50 220 29 5.4 6.0
2015-Feb-27 20:20 220 31 5.4 6.0
2015-Feb-27 19:50 220 30 5.4 6.0
2015-Feb-27 19:20 220 25 5.4 6.0
2015-Feb-27 18:50 220 23 5.4 6.0
2015-Feb-27 18:20 220 23 5.4 6.0
2015-Feb-27 17:50 230 26 5.4 6.0
2015-Feb-27 17:20 230 26 5.4 6.0
2015-Feb-27 16:50 230 25 5.4 7.0
2015-Feb-27 16:20 230 23 5.4 7.0
2015-Feb-27 15:50 230 22 5.4 7.0
2015-Feb-27 15:20 240 22 7.0
2015-Feb-27 14:50 240 23 5.4 7.0
2015-Feb-27 14:20 240 27 5.4 7.0
2015-Feb-27 13:50 250 27 5.4 7.0
2015-Feb-27 13:20 240 29 7.0
2015-Feb-27 12:50 240 31 6.0
2015-Feb-27 12:20 240 32 6.0
2015-Feb-27 11:50 240 31 6.0
2015-Feb-27 11:20 240 33 5.4 6.0
2015-Feb-27 10:50 250 32 5.4 6.0
2015-Feb-27 10:20 250 33 5.4 6.0
2015-Feb-27 09:50 250 32 5.4 6.0
2015-Feb-27 08:50 240 32 5.4 6.0
2015-Feb-27 08:20 240 31 5.4 6.0
2015-Feb-27 07:50 250 34 5.4 6.0
2015-Feb-27 07:20 240 30 5.4 6.0
2015-Feb-27 06:50 240 30 5.4 6.0
2015-Feb-27 06:20 230 30 5.4 6.0
2015-Feb-27 05:50 240 29 5.4 6.0
2015-Feb-27 05:20 240 30 5.4 5.0
2015-Feb-27 04:50 240 29 5.4 5.0
2015-Feb-27 04:20 250 29 5.4 5.0
2015-Feb-27 03:50 240 29 5.4 5.0
2015-Feb-27 03:20 240 27 5.4 5.0
2015-Feb-27 02:50 250 31 5.4 5.0
2015-Feb-27 02:20 240 30 5.4 5.0
2015-Feb-27 01:50 250 27 5.4 5.0
2015-Feb-27 01:20 250 27 5.4 5.0
2015-Feb-27 00:50 250 30 5.4 6.0
2015-Feb-27 00:20 260 30 5.4 6.0
2015-Feb-26 23:50 260 30 5.4 6.0
2015-Feb-26 23:20 250 31 5.4 6.0
2015-Feb-26 22:50 250 27 5.4 6.0
2015-Feb-26 22:20 240 27 5.4 6.0
2015-Feb-26 21:50 260 25 5.4 6.0
2015-Feb-26 21:20 260 24 5.4 6.0
2015-Feb-26 20:50 270 26 5.4 6.0
2015-Feb-26 20:20 270 26 5.4 6.0
2015-Feb-26 19:50 270 27 5.4 6.0
2015-Feb-26 19:20 270 27 5.4 6.0
2015-Feb-26 18:50 280 19 5.4 5.0
2015-Feb-26 18:20 240 22 5.4 7.0
2015-Feb-26 17:50 250 22 5.4 7.0
2015-Feb-26 17:20 270 27 5.4 7.0
2015-Feb-26 16:50 270 23 5.4 6.0
2015-Feb-26 16:20 270 26 5.4 6.0
2015-Feb-26 15:50 270 26 5.4 6.0
2015-Feb-26 15:20 280 27 5.4 6.0
2015-Feb-26 14:50 280 26 5.4 7.0
2015-Feb-26 14:20 280 23 5.4 7.0
2015-Feb-26 13:50 280 25 5.4 7.0
2015-Feb-26 13:20 280 27 5.4 7.0 Light rain.
2015-Feb-26 12:40 270 22 5.4 7.0 Light rain.
2015-Feb-26 12:20 290 20 5.4 6.0 Light rain.
2015-Feb-26 11:50 290 23 3.2 6.0 Light rain.
2015-Feb-26 11:20 280 27 2.7 7.0 Light rain.
2015-Feb-26 10:50 280 25 2.4 8.0 Light rain. Mist.
2015-Feb-26 10:20 200 37 2.2 8.0 Light rain. Mist.
2015-Feb-26 09:50 200 37 2.2 8.0 Light rain. Mist.
2015-Feb-26 09:20 190 40 2.2 8.0 Light rain. Mist.
2015-Feb-26 08:50 190 39 2.2 8.0 Light rain. Mist.
2015-Feb-26 08:20 190 41 gusting 51 2.2 8.0 Light rain. Mist.
2015-Feb-26 07:50 190 43 2.7 7.0 Light rain.
2015-Feb-26 07:20 190 45 2.7 7.0 Light rain.
2015-Feb-26 06:50 180 46 2.7 7.0 Light rain.
2015-Feb-26 06:20 180 49 2.7 7.0 Light rain.
2015-Feb-26 05:50 180 48 2.7 7.0 Light rain. Mist.
2015-Feb-26 05:20 180 49 2.7 7.0 Light rain. Mist.
2015-Feb-26 04:50 180 51 2.7 7.0 Light rain. Mist.
2015-Feb-26 04:20 180 50 1.8 7.0 Mist.
2015-Feb-26 03:50 180 51 1.9 6.0 Mist.
2015-Feb-26 03:20 180 54 2.3 6.0 Mist.
2015-Feb-26 02:50 180 51 3.8 7.0
2015-Feb-26 02:20 180 48 5.4 7.0
2015-Feb-26 01:50 180 47 5.4 7.0
2015-Feb-26 01:20 180 48 5.4 7.0
2015-Feb-26 00:50 180 45 5.4 6.0
2015-Feb-26 00:20 180 45 4.3 6.0
2015-Feb-25 23:50 180 45 5.4 6.0
2015-Feb-25 23:20 180 45 5.4 6.0
2015-Feb-25 22:50 180 44 5.4 6.0
2015-Feb-25 22:20 180 37 5.4 6.0